Location: *
(51.1248°S, 108.4023°W)
Time: 21:24:51
(UTC+00:00)

Cosmos 2278 Rocket - Pass Details

Date: 25 October 2021
Orbit: 841 x 845 km, 71.0° (Epoch: 30 November)

Event Time Altitude Azimuth Distance (km) Brightness Sun altitude
Exits shadow 09:41:23 - 255° (WSW) 3,417 5.1 -17.4°
Reaches altitude 10° 09:45:22 10° 227° (SW) 2,495 4.6 -16.9°
Maximum altitude 09:47:58 13° 200° (SSW) 2,285 4.8 -16.7°
Drops below altitude 10° 09:50:33 10° 173° (S) 2,500 5.4 -16.4°
Sets 09:54:36 0° 146° (SE) 3,439 7.1 -15.9°
